{"data":{"norad_id":60206,"intl_designator":"2024-125D","name":"R5-S4","alt_names":[],"object_type":"PAYLOAD","status":"ACTIVE","operator":null,"country":"US","launch_date":"2024-07-04","launch_site_code":"AFWTR","launch_vehicle":null,"mission":null,"orbit_class":"UNKNOWN","rcs_meters":null,"size_class":null,"mass_kg":null,"dimensions":null,"purposes":[],"wikipedia_slug":null,"has_3d_model":false,"image_url":null,"decayed_at":null,"tle_current":{"epoch":"2026-09-22T20:25:54.876576Z","epoch_age_seconds":77979,"freshness":"FRESH","line1":"1 60206U 24125D   26265.85132959  .00010593  00000+0  22022-3 0  9999","line2":"2 60206  97.2272 116.6057 0013834 230.7183 129.2840 15.45728377124208","mean_motion":15.45728377,"eccentricity":0.0013834,"inclination_deg":97.2272,"raan_deg":116.6057,"arg_perigee_deg":230.7183,"mean_anomaly_deg":129.284,"bstar":0.00022022,"rev_number":12420,"period_min":93.159964029049,"perigee_km":419.82139737592,"apogee_km":438.65604452064,"semimajor_km":6807.3757209483,"source":"CELESTRAK","updated_at":"2026-09-23T09:00:20.458790Z"}}}